|
NORAD ID: 11750 Int'l Code: 1980-026A
Perigee: 984.5 km
Apogee: 1,002.7 km
Inclination: 65.8 °
Period: 104.8 minutes
Semi major axis: 7364 km
Launch date: April 3, 1980
Source: Commonwealth of Independent States (former USSR) (CIS)
Two Line Element Set (TLE):
1 11750U 80026A 13168.15933354 -.00000071 00000-0 94152-5 0 9807
2 11750 065.8426 292.4060 0012340 123.3867 296.8278 13.73669104665616
Source:
NASA's NSSDC Master Catalog entry for COSMOS 1171
|